Regional Weather Roundup
Issued by NWS

Home | Current Version | Previous Version | Text Only | Print | Product List | Glossary On
Versions: 1 2 3 4 5 6 7 8 9 10 11 12 13 14 15 16 17 18 19 20 21 22 23 24 25 26 27 28 29 30 31 32 33 34 35 36 37 38 39 40 41 42 43 44 45 46 47 48 49 50
000
ASUS43 KOAX 301302
RWRNE

WEATHER ROUNDUP FOR NEBRASKA
NATIONAL WEATHER SERVICE OMAHA NE
800 AM CDT WED JUL 30 2014

NOTES: SATELLITE DATA IS BEING USED TO AUGMENT CLOUD COVER ABOVE
       12000 FEET.
       "FAIR" INDICATES FEW OR NO CLOUDS BELOW 12,000 FEET WITH NO
       SIGNIFICANT WEATHER AND/OR OBSTRUCTIONS TO VISIBILITY.

  * THESE STATIONS DO NOT REPORT WEATHER SUCH AS RAIN...SNOW OR FOG.

NEZ001>004-019>022-054>056-301400-
NEBRASKA PANHANDLE

CITY           SKY/WX    TMP DP  RH WIND       PRES   REMARKS
SCOTTSBLUFF    CLOUDY    63  59  87 NW3       30.27R
ALLIANCE       PTSUNNY   62  54  74 N3        30.25S
CHADRON        PTSUNNY   57  55  93 SW6       30.25R
KIMBALL        DRIZZLE   60  60  98 NE6       30.28S
SIDNEY         CLOUDY    63  60  90 E5        30.28S
$$

NEZ057>060-069>072-079>082-301400-
SOUTHWEST NEBRASKA

CITY           SKY/WX    TMP DP  RH WIND       PRES   REMARKS
NORTH PLATTE   CLOUDY    64  60  87 E3        30.22R
IMPERIAL       CLOUDY    63  60  90 NE5       30.23R
LEXINGTON      MOSUNNY   64  60  85 CALM      30.20R
MCCOOK         CLOUDY    63  62  97 NE5       30.20R
OGALLALA       CLOUDY    63  61  92 CALM      30.23S
$$

NEZ005>010-023>029-035>040-094-301400-
NORTH CENTRAL NEBRASKA

CITY           SKY/WX    TMP DP  RH WIND       PRES   REMARKS
VALENTINE      MOSUNNY   56  51  84 W3        30.21S
AINSWORTH      MOSUNNY   58  53  81 W6        30.21S
BROKEN BOW     SUNNY     61  58  90 CALM      30.20R FOG
O`NEILL        SUNNY     59  56  91 CALM      30.19R
ORD            SUNNY     59  56  89 CALM      30.18R
$$

NEZ041-046>049-061>064-073>077-083>087-301400-
SOUTH CENTRAL NEBRASKA

CITY           SKY/WX    TMP DP  RH WIND       PRES   REMARKS
GRAND ISLAND   SUNNY     63  58  83 CALM      30.18R
AURORA         MOSUNNY   62  60  96 CALM      30.18R
HASTINGS       MOSUNNY   64  56  75 N3        30.17R
HEBRON         PTSUNNY   64  57  77 CALM      30.16R
HOLDREGE       PTSUNNY   63  58  86 NE5       30.19R
KEARNEY *      MOSUNNY   63  55  77 N6        30.19R
YORK           SUNNY     59  59 100 CALM      30.17R
$$

NEZ011>018-030>034-042>045-301400-
NORTHEAST NEBRASKA

CITY           SKY/WX    TMP DP  RH WIND       PRES   REMARKS
NORFOLK        SUNNY     60  55  83 CALM      30.16S
ALBION         SUNNY     58  55  91 CALM      30.18R
BLAIR          SUNNY     61  55  81 CALM      30.14S
COLUMBUS *     PTSUNNY   63  54  72 CALM      30.17R
FREMONT        SUNNY     60  56  88 NW5       30.16R
TEKAMAH        SUNNY     60  56  86 NW3       30.15R
WAYNE          MOSUNNY   56  54  92 CALM      30.17S
$$

NEZ050>053-065>068-078-088>093-301400-
SOUTHEAST NEBRASKA

CITY           SKY/WX    TMP DP  RH WIND       PRES   REMARKS
LINCOLN        SUNNY     62  56  80 N3        30.16S
OMAHA EPPLEY   MOSUNNY   61  57  87 N6        30.15S
BEATRICE       MOSUNNY   62  58  84 CALM      30.15R
FALLS CITY     PTSUNNY   65  59  81 CALM      30.13R
NEBRASKA CITY  MOSUNNY   62  58  86 CALM      30.14S
PLATTSMOUTH    MOSUNNY   61  57  87 CALM      30.15R
$$

NEZ044-045-051>053-067-301400-
OMAHA AREA

CITY           SKY/WX    TMP DP  RH WIND       PRES   REMARKS
OMAHA EPPLEY   MOSUNNY   61  57  87 N6        30.15S
BLAIR          SUNNY     61  55  81 CALM      30.14S
FREMONT        SUNNY     60  56  88 NW5       30.16R
MILLARD        SUNNY     62  57  82 CALM      30.15R
OFFUTT AFB     SUNNY     60  60 100 NW3       30.14S
PLATTSMOUTH    MOSUNNY   61  57  87 CALM      30.15R
WAHOO          FAIR      61  57  87 N3        30.15S
$$


USA.gov is the U.S. government's official web portal to all federal, state and local government web resources and services.